AirNav   $300 off a Bose A20 aviation headset
 
 335 users online  

S78 Emmett Municipal Airport
Emmett, Idaho, USA

GOING TO EMMETT?


FAA INFORMATION EFFECTIVE 28 FEBRUARY 2019

Location

FAA Identifier: S78
Lat/Long: 43-51-09.5400N / 116-32-20.6500W
43-51.159000N / 116-32.344167W
43.8526500 / -116.5390694
(estimated)
Elevation: 2354 ft. / 717 m (estimated)
Variation: 17E (1985)
From city: 3 miles SW of EMMETT, ID
Time zone: UTC -7 (UTC -6 during Daylight Saving Time)
Zip code: 83617

Airport Operations

Airport use: Open to the public
Activation date: 12/1944
Control tower: no
ARTCC: SALT LAKE CITY CENTER
FSS: BOISE FLIGHT SERVICE STATION
NOTAMs facility: BOI (NOTAM-D service available)
Attendance: UNATNDD
Wind indicator: lighted
Segmented circle: yes
Lights: ACTVT MIRL RY 10/28-CTAF.
Beacon: white-green (lighted land airport)
Operates sunset to sunrise.

Airport Communications

CTAF: 122.9
WX AWOS-3PT at EUL (13 nm S): 135.075 (208-454-3953)
WX AWOS-3 at MAN (16 nm S): 118.325 ((208) 318-0040)
  • COMMUNICATIONS PRVDD BY BOISE FSS ON FREQ 122.45 (SQUAW BUTTE RCO).

Nearby radio navigation aids

VOR radial/distance  VOR name  Freq  Var
BOIr303/23.5BOISE VORTAC113.3017E

 
NDB name  Hdg/Dist  Freq  Var  ID
ONTARIO103/22.630513EONO --- -. ---

Airport Services

Fuel available: 100LL
FUEL AVAILABLE 24 HOURS SELF SERVE CREDIT CARD
Parking: tiedowns
Airframe service: NONE
Powerplant service: NONE
Bottled oxygen: NONE
Bulk oxygen: NONE

Runway Information

Runway 10/28

Dimensions: 3307 x 55 ft. / 1008 x 17 m
Surface: asphalt, in good condition
Weight bearing capacity: 
Single wheel: 8.0
Runway edge lights: medium intensity
Runway edge markings: RWY 10 DSPLCD THLD MARKINGS YELLOW.
RUNWAY 10  RUNWAY 28
Latitude: 43-51.281000N43-51.037000N
Longitude: 116-32.680333W116-32.008000W
Elevation: 2351.0 ft.2354.0 ft.
Gradient: 0.1%0.1%
Traffic pattern: leftleft
Runway heading: 099 magnetic, 116 true279 magnetic, 296 true
Declared distances: TORA:2934 TODA:2934TORA:3107 TODA:3107
Markings: NSTD, in good conditionbasic, in good condition
Obstructions: none
APCH SLOPE 50:1 AT DSPLCD THLD.
3 ft. fence, 200 ft. from runway, 25 ft. left of centerline
10 FT PVT ROAD AT 0 FT, 100 FT L; +5 FT FENCE AT 190 FT ON CENTERLINE.

Airport Ownership and Management from official FAA records

Ownership: Publicly-owned
Owner: BRUCE EVANS
501 EAST MAIN STREET
EMMETT, ID 83617
Phone (208) 365-9569
MOBILE (208) 941-7365
Manager: BRUCE EVANS
601 E 3RD ST
EMMETT, ID 83617
Phone (208) 365-9569
MOBILE (208) 941-7365

Airport Operational Statistics

Aircraft based on the field: 21
Single engine airplanes: 21
    
Aircraft operations: avg 33/day *
50% transient general aviation
48% local general aviation
2% air taxi
* for 12-month period ending 26 January 2018

Additional Remarks

GOLF COURSE ON BOTH SIDES OF RWY.
1800' X 20' PVT GRVL AGG RWY LCTD ADJCNT NW OF ARPT.
GOLF COURSE ROAD CROSSES NEAR RWY 28 THLD. WATCH FOR GOLFERS ON RWY.
FOR CD CTC BIG SKY APCH AT 208-364-5860/5861.
A51-28 RWY 28 DISPLACED THLD MARKED WITH WHITE BAR AND WHITE CHEVRONS ONLY.

Instrument Procedures

There are no published instrument procedures at S78.

Some nearby airports with instrument procedures:

KEUL - Caldwell Industrial Airport (13 nm S)
KMAN - Nampa Municipal Airport (16 nm S)
KBOI - Boise Air Terminal/Gowen Field (22 nm SE)
KONO - Ontario Municipal Airport (23 nm NW)
S87 - Weiser Municipal Airport (28 nm NW)
 
Loc | Ops | Rwys | IFR | FBO | Links
Com | Nav | Svcs | Stats | Notes
Area around S78 (Emmett Municipal Airport)
 
Road maps at: MapQuest Bing Google
 
Aerial photo
WARNING: Photo may not be current or correct
Aerial photo of S78 (Emmett Municipal Airport)
Do you have a better or more recent aerial photo of Emmett Municipal Airport that you would like to share? If so, please send us your photo.

 
Sectional chart

 
Airport distance calculator
Flying to Emmett Municipal Airport? Find the distance to fly.

From to S78

Sunrise and sunset
Times for 24-Mar-2019
 Local
(UTC-6)
 Zulu
(UTC)
Morning civil twilight07:1413:14
Sunrise07:4313:43
Sunset20:0202:02
Evening civil twilight20:3102:31

Current date and time
Zulu (UTC)  24-Mar-2019 10:23:08
Local (UTC-6)  24-Mar-2019 04:23:08
 
METAR
KEUL 
15nm S 
240956Z AUTO 21011KT 10SM -RA OVC032 07/04 A3001 RMK AO2 SLP164 P0004 T00670039
KMAN 
16nm S 
240955Z AUTO 26008KT 3SM BR FEW007 BKN029 OVC095 07/07 A3000 RMK A01 P0017
KBOI 
22nm SE 
240953Z 14004KT 9SM -RA OVC037 08/06 A2999 RMK AO2 SLP149 P0003 T00780056
KONO 
23nm NW 
241002Z AUTO 22011G15KT 3SM RA BR FEW005 OVC012 08/06 A3000 RMK AO2 P0003 T00780056 TSNO
TAF
KEUL 
15nm S 
240520Z 2406/2506 VRB05KT P6SM -RA BKN022 OVC040 FM241200 28008KT P6SM VCSH BKN060 FM241800 26007KT P6SM SCT060 FM250100 VRB05KT P6SM SKC
NOTAMs
Click for the latest NOTAMs
NOTAMs are issued by the DoD/FAA and will open in a separate window not controlled by AirNav.

 

 
 

FBO, Fuel Providers, and Aircraft Ground Support

  
 Business Name 
 
 Contact 
 
 Services / Description 
 
Fuel Prices
 
Comments
  
Back Country Fuel Stop 208-861-9055
208-861-9056
[email]
Aviation fuel, Restrooms, Restaurant

More info about Back Country Fuel Stop
Phillips 66
100LL
SS $5.59 
 Updated 21-Mar-2019
 
   write
SS=Self service
Update Fuel Prices
 

Would you like to see your business listed on this page?

 If your business provides an interesting product or service to pilots, flight crews, aircraft, or users of the Emmett Municipal Airport, you should consider listing it here.  To start the listing process, click on the button below
 
Add a business
 

Other Pages about Emmett Municipal Airport

Update a link
 
Copyright © AirNav, LLC. All rights reserved. Privacy Policy  Contact